SCP
0 0 0 0 0 0 0 -0 -0 -0 -0 0 -0 -0 -0 -0 0 0 -0 -0 -0 -0 -0 -0 -0 -0 0 0 -0 0 0 0 0 0 0 0 0 -0 -0 0 0 0 0 0 0 0 0
0 0 0 0 0 0 -0 -0 -0 -0 -0 -0 -0 0 -0 -0 0 0 0 0 -0 -0 -0 -0 -0 -0 0 -0 0 0 0 0 0 0 0 0 0 -0 -0 -0 0 0 0 0 0 0 0
0 0 0 0 0 0 0 -0 -0 -0 -0 -0 -0 0 0 0 0 0 0 0 -0 0 -0 -0 -0 0 0 -0 0 0 0 0 0 0 0 0 0 0 0 -0 0 0 0 0 0 0 0
0 0 0 0 0 0 0 0 -0 -0 -0 -0 -0 -0 0 0 -0 0 0 -0 -0 0 0 0 0 0 0 0 0 0 0 0 0 0 0 0 0 -0 0 -0 0 0 0 0 0 0 0
0 0 0 0 0 0 0 0 -0 -0 -0 -0 -0 0 0 -0 -0 -0 -0 -0 0 -0 -0 0 0 0 0 0 0 0 0 0 0 0 0 0 0 -0 0 0 0 0 0 0 0 0 0
0 0 0 0 0 0 0 0 0 -0 -0 -0 -0 -0 0 -0 -0 -0 -0 -0 -0 -0 -0 0 0 0 0 0 0 0 0 0 0 0 0 0 -0 -0 0 0 0 0 0 0 0 0 0
0 0 0 0 0 0 0 0 0 0 -0 -0 -0 -0 -0 -0 -0 -0 0 -0 -0 0 0 0 0 0 0 0 0 0 0 0 0 0 -0 0 -0 -0 -0 -0 0 0 0 0 0 0 0
0 0 0 0 0 0 0 0 0 0 0 -0 -0 -0 -0 -0 -0 -0 -0 -0 -0 0 0 0 0 0 0 0 0 0 0 0 0 -0 -0 -0 -0 0 -0 0 0 0 0 0 0 0 0
0 0 0 0 0 0 0 0 0 0 0 0 -0 -0 -0 -0 -0 -0 -0 -0 0 -0 0 0 0 0 0 0 0 0 0 0 0 -0 -0 -0 -0 -0 -0 0 0 0 0 0 0 0 0
0 0 0 0 0 0 0 0 0 0 0 0 -0 -0 -0 -0 -0 -0 0 -0 -0 -0 0 0 0 0 0 0 0 0 0 0 0 -0 -0 -0 0 0 -0 0 0 0 0 0 0 0 0
0 0 0 0 0 0 0 0 0 0 0 0 0 -0 -0 -0 -0 0 -0 0 -0 0 0 0 0 0 0 0 0 0 0 0 0 0 0 -0 -0 -0 -0 0 0 0 0 0 0 0 0
0 0 0 0 0 0 0 0 0 0 0 0 0 0 -0 -0 0 0 -0 0 0 0 0 0 0 0 0 0 0 0 0 0 0 0 0 -0 -0 -0 0 -0 0 0 0 0 0 0 0
0 0 0 0 0 0 0 0 0 0 0 0 0 0 -0 0 -0 0 0 0 0 0 0 0 0 0 0 0 0 0 0 0 0 0 0 0 0 0 -0 -0 -0 0 0 0 0 0 0
0 0 0 0 0 0 0 0 0 0 0 0 0 0 -0 0 0 0 0 0 0 0 0 0 0 0 0 0 0 0 0 0 0 0 0 0 0 0 0 0 0 0 0 0 0 0 0
0 0 0 0 0 0 0 0 0 0 0 0 0 0 0 0 0 0 0 0 0 0 0 0 0 0 0 0 0 0 0 0 0 0 0 0 0 0 0 0 0 0 0 0 0 0 0
0 0 0 0 0 0 0 0 0 0 0 0 0 0 0 0 0 0 0 0 0 0 0 0 0 0 0 0 0 0 0 0 0 0 0 0 0 0 0 0 0 0 0 0 0 0 0
0 0 0 0 0 0 0 0 0 0 0 0 0 0 0 0 0 0 0 0 0 0 0 0 0 0 0 0 0 0 0 0 0 0 0 0 0 0 0 0 0 0 0 0 0 0 0
0 0 0 0 0 0 0 0 0 0 0 0 0 0 0 0 0 0 0 0 0 0 0 0 0 0 0 0 0 0 0 0 0 0 0 0 0 0 0 0 0 0 0 0 0 0 0
0 0 0 0 0 0 0 0 0 0 0 0 0 0 0 0 0 0 0 0 0 0 0 0 0 0 0 0 0 0 0 0 0 0 0 0 0 0 0 0 0 0 0 0 0 0 0
0 0 0 0 0 0 0 0 0 0 0 0 0 0 0 0 0 0 0 0 0 0 0 0 0 0 0 0 0 0 0 0 0 0 0 0 0 0 0 0 0 0 0 0 0 0 0
0 0 0 0 0 0 0 0 0 0 0 0 0 0 0 0 0 0 0 0 0 0 0 0 0 0 0 0 0 0 0 0 0 0 0 0 0 0 0 0 0 0 0 0 0 0 0
0 0 0 0 0 0 0 0 0 0 0 0 0 0 0 0 0 0 0 0 0 0 0 0 0 0 0 0 0 0 0 0 0 0 0 0 0 0 0 0 0 0 0 0 0 0 0
0 0 0 0 0 0 0 0 0 0 0 0 0 0 0 0 0 0 0 0 0 0 0 0 0 0 0 0 0 0 0 0 0 0 0 0 0 0 0 0 0 0 0 0 0 0 0
0 0 0 0 0 0 0 0 0 0 0 0 0 0 0 0 0 0 0 0 0 0 0 0 0 0 0 0 0 0 0 0 0 0 0 0 0 0 0 0 0 0 0 0 0 0 0
0 0 0 0 0 0 0 0 0 0 0 0 0 0 0 0 0 0 0 0 0 0 0 0 0 0 0 0 0 0 0 0 0 0 0 0 0 0 0 0 0 0 0 0 0 0 0
0 0 0 0 0 0 0 0 0 0 0 0 0 0 0 0 0 0 0 0 0 0 0 0 0 0 0 0 0 0 0 0 0 0 0 0 0 0 0 0 0 0 0 0 0 0 0
0 0 0 0 0 0 0 0 0 0 0 0 0 0 0 0 0 0 0 0 0 0 0 0 0 0 0 0 0 0 0 0 0 0 0 0 0 0 0 0 0 0 0 0 0 0 0
0 0 0 0 0 0 0 0 0 0 0 0 0 0 0 0 0 0 0 0 0 0 0 0 0 0 0 0 0 0 0 0 0 0 0 0 0 0 0 0 0 0 0 0 0 0 -0
0 0 0 0 0 0 0 0 0 0 0 0 0 0 0 0 0 0 0 0 0 0 0 0 0 0 0 0 0 0 0 0 0 0 0 0 0 0 0 0 0 0 0 0 0 0 0
Wind_Speed_500mb
35 33 29 26 23 22 20 18 19 18 22 25 27 32 37 41 42 43 44 43 37 29 25 25 21 16 9 8 9 13 27 25 20 18 17 17 30 9 11 17 43 29 22 37 66 72 56
35 33 30 27 25 24 21 20 19 18 21 24 26 30 36 41 43 42 44 42 35 28 24 22 19 15 5 4 11 13 28 20 16 17 17 25 22 25 18 15 17 37 45 39 32 38 22
35 34 31 29 27 25 23 21 19 19 21 24 26 32 36 40 42 43 44 42 32 26 22 19 17 16 5 6 2 5 23 20 17 14 14 14 18 6 18 28 34 47 30 18 11 13 12
36 34 31 30 28 26 24 22 21 20 19 21 26 31 36 40 42 43 44 39 26 23 18 16 13 12 4 8 4 6 16 19 16 9 8 10 16 18 15 49 12 12 8 6 5 10 8
36 34 32 30 29 27 25 22 22 21 18 20 25 32 36 39 42 44 40 30 26 18 13 18 7 11 6 1 3 9 15 17 12 8 5 6 13 18 21 16 10 7 9 4 6 7 7
36 34 32 30 29 27 25 23 22 21 18 18 24 31 34 37 41 38 33 17 21 4 23 7 7 4 5 7 13 13 21 21 9 8 13 4 9 10 8 6 11 17 9 5 3 8 14
35 35 33 31 29 26 25 23 21 19 18 18 22 29 32 36 37 28 29 14 24 6 30 7 14 12 11 21 6 16 22 16 7 10 6 4 11 2 14 21 8 14 13 13 4 6 12
35 35 33 30 27 26 25 22 19 17 17 18 21 27 31 33 31 20 24 32 30 22 20 23 11 18 13 12 2 13 18 6 9 6 2 10 2 8 8 12 15 12 22 8 9 6 10
35 35 32 29 27 24 22 20 17 15 15 18 20 24 29 32 24 10 13 31 29 22 6 15 8 9 2 4 1 11 17 6 10 5 5 9 8 11 12 10 13 3 14 13 13 9 14
35 34 31 29 26 23 21 19 17 15 14 16 19 24 27 31 14 15 7 26 26 20 9 11 5 2 8 0 5 10 17 8 3 7 8 3 4 9 13 6 6 5 14 15 28 7 5
35 34 31 28 26 23 21 18 16 15 14 15 19 24 27 26 26 16 17 20 23 11 6 6 5 1 5 9 1 11 17 6 11 10 9 11 11 5 7 2 9 2 21 15 9 11 9
35 33 30 28 25 23 20 17 16 14 15 17 20 26 28 28 24 8 16 20 17 10 4 7 2 0 5 2 2 7 9 5 7 8 5 6 5 3 6 12 17 19 17 17 10 7 5
34 33 31 28 25 22 18 16 14 14 16 20 23 26 29 29 24 17 15 13 10 7 7 6 4 2 2 1 2 4 7 3 7 8 8 13 7 7 34 20 2 12 12 6 5 6 9
34 33 31 27 24 21 17 15 13 14 17 21 26 27 29 25 23 11 12 10 6 4 8 9 4 4 6 3 2 3 8 4 5 10 6 6 9 7 7 12 15 13 13 10 6 6 5
35 33 31 27 23 20 16 14 13 14 18 22 26 27 23 15 10 5 3 7 9 6 7 13 11 6 2 2 4 6 2 14 13 11 12 8 7 6 4 6 13 8 3 8 14 6 3
35 34 30 27 23 18 15 12 13 15 18 21 24 22 10 2 8 7 9 8 7 7 10 6 3 4 7 3 4 4 5 7 9 17 5 10 3 0 4 8 16 6 12 7 8 3 4
35 34 30 26 22 18 15 12 13 15 16 18 17 8 1 6 12 2 6 10 10 15 9 4 5 3 6 7 10 5 3 4 6 5 9 9 8 7 4 3 14 2 2 13 10 8 8
35 33 30 26 21 17 14 12 11 13 15 12 8 3 3 19 4 5 4 7 12 10 4 7 4 6 4 6 7 8 10 7 2 13 15 9 9 6 8 6 3 3 6 10 10 7 2
35 31 29 25 20 16 13 11 10 11 12 7 5 1 7 16 4 3 8 8 10 7 7 6 6 2 5 2 3 11 11 5 5 12 15 14 3 6 13 12 5 3 5 9 10 7 9
34 31 28 24 19 14 12 11 11 11 9 5 4 2 5 12 4 9 1 8 9 11 13 11 9 2 2 5 3 4 7 6 5 6 13 11 7 11 14 11 6 6 8 8 10 7 9
35 30 25 22 18 13 10 10 10 9 7 6 5 2 5 3 5 4 4 3 6 10 8 8 6 6 3 6 6 1 1 3 6 8 5 8 6 6 8 7 5 6 8 15 14 9 11
35 31 26 21 17 12 8 7 7 6 9 12 6 6 4 3 3 4 2 5 7 7 10 8 4 8 5 3 6 3 3 1 4 4 6 7 3 2 3 8 10 8 4 14 4 7 5
35 30 26 21 17 12 7 4 4 3 10 7 10 7 2 2 4 7 7 8 8 2 15 28 12 5 6 11 11 7 5 3 8 3 4 6 9 6 7 8 12 9 7 8 7 8 12
36 31 26 21 16 12 7 3 1 2 7 12 9 9 6 4 3 7 3 8 10 12 11 9 12 10 6 4 3 4 25 34 25 20 6 9 8 5 4 7 1 13 9 13 7 3 10
36 32 27 21 17 12 7 3 3 3 5 6 7 10 7 3 4 8 7 8 17 17 10 7 3 11 11 2 8 9 10 8 13 11 14 5 9 7 6 5 9 12 4 4 7 11 6
37 32 27 22 18 13 8 4 3 3 5 5 6 9 8 6 8 6 4 6 4 6 9 4 4 11 2 10 7 7 8 5 2 3 6 11 13 9 4 3 7 9 13 4 6 8 4
37 32 27 23 19 14 10 6 3 4 4 8 0 6 8 6 5 1 1 4 5 2 3 9 14 8 10 5 7 4 4 1 6 11 2 7 7 8 4 4 11 12 10 12 7 13 13
36 31 27 23 19 15 11 7 4 5 3 7 7 8 7 7 10 8 4 4 2 5 3 9 5 7 6 9 6 6 5 5 3 4 4 9 11 6 4 3 12 1 5 6 11 9 22
35 31 26 23 19 16 11 7 4 5 5 2 5 11 10 15 9 13 7 3 4 8 10 6 2 1 2 9 3 6 3 3 6 6 3 1 11 8 15 11 11 4 11 14 17 19 30
Wind_Direction_500mb
243 245 246 251 257 264 270 277 291 310 322 327 333 346 346 347 346 345 347 348 344 342 341 342 348 356 39 90 88 97 128 146 146 114 73 39 47 53 71 99 91 90 93 83 113 108 106
239 242 244 246 250 256 264 273 284 300 310 319 331 340 342 341 342 344 343 343 340 336 337 337 343 345 8 109 106 100 136 149 132 115 86 57 56 84 95 49 64 115 103 106 112 104 96
236 238 241 242 247 250 259 266 278 292 304 313 328 337 337 339 341 341 341 338 337 330 332 333 337 339 242 148 137 134 146 151 137 127 95 61 38 87 103 99 102 97 100 107 66 104 129
235 235 237 241 244 249 254 261 270 280 294 310 326 330 334 339 341 341 339 336 336 327 333 333 337 340 202 172 262 211 167 165 151 127 70 55 30 87 93 113 101 88 65 91 346 173 44
236 234 234 238 242 247 252 257 267 278 295 311 321 326 336 339 343 345 341 341 340 339 4 335 346 345 115 125 321 212 179 159 148 111 50 51 88 93 116 98 57 345 181 151 177 63 111
236 234 232 234 240 244 249 255 262 277 293 310 318 325 335 340 346 352 354 354 344 357 340 355 44 17 67 331 346 180 183 164 148 128 106 124 89 78 45 76 197 190 142 118 173 20 51
232 233 231 231 235 241 246 252 259 271 291 311 319 325 335 340 346 359 11 11 10 344 335 292 311 286 305 340 100 179 178 176 125 81 84 29 78 150 236 222 194 122 109 115 72 105 83
229 228 229 228 230 235 239 245 253 268 289 308 318 326 335 338 344 2 26 42 17 318 307 311 281 265 310 326 84 162 171 188 94 110 335 25 40 196 107 94 115 105 117 93 70 57 91
225 223 224 224 224 228 232 238 246 260 280 297 313 325 334 335 341 353 20 11 355 341 277 299 288 272 297 23 44 154 171 137 116 98 50 115 259 316 131 122 115 104 134 169 139 122 52
219 220 218 219 220 221 227 230 238 251 267 288 307 321 332 336 344 336 332 347 347 335 51 286 300 272 207 307 306 170 171 170 79 144 152 222 293 38 98 155 84 120 140 122 126 109 153
215 214 212 213 215 217 221 226 233 247 264 284 302 316 325 335 331 327 317 333 334 321 42 313 256 261 201 177 227 179 184 209 153 140 87 263 340 42 95 50 95 64 102 99 95 93 108
209 207 205 206 211 213 218 225 234 250 271 288 300 310 318 322 334 321 327 318 321 39 26 358 244 129 96 270 318 135 171 172 128 95 17 245 309 167 99 39 95 153 81 47 49 75 45
203 200 200 199 205 210 214 226 241 259 277 293 301 308 311 314 316 306 326 329 40 108 339 353 256 117 108 100 350 77 137 120 129 86 360 347 351 64 105 83 6 94 78 35 336 7 215
198 194 196 197 199 206 214 229 249 271 287 299 303 307 307 311 304 285 323 45 65 298 276 315 305 91 140 166 4 65 91 107 45 86 108 107 352 164 173 162 176 179 151 151 237 213 249
194 191 190 195 198 204 215 233 259 281 296 304 306 308 311 310 303 205 314 57 217 215 305 331 315 97 294 267 124 82 93 184 194 168 150 140 275 304 25 120 126 208 155 158 104 29 32
189 189 189 190 194 205 220 238 265 287 301 305 310 317 317 335 159 155 75 234 251 226 319 8 17 87 162 256 123 93 212 203 182 196 139 206 81 209 187 99 51 134 144 76 40 126 298
187 186 187 189 194 202 222 245 271 290 301 304 313 312 271 139 156 116 147 240 282 292 310 328 326 343 212 174 165 204 193 257 188 119 117 138 113 278 47 180 176 108 40 49 106 123 159
188 185 186 189 194 203 222 249 275 293 300 303 296 7 329 159 61 53 158 211 312 297 302 285 243 244 194 158 163 212 199 236 93 158 156 184 136 162 201 306 346 110 162 134 117 209 145
188 185 186 188 194 204 224 253 275 282 293 307 277 267 177 174 120 318 299 287 265 304 294 313 294 262 51 331 236 185 221 151 237 164 168 186 65 62 356 352 358 211 135 101 102 82 187
186 186 184 188 194 206 230 257 272 268 275 267 253 36 134 196 154 137 78 287 291 306 266 265 272 314 17 39 18 244 180 22 111 148 140 114 114 151 188 205 173 185 166 149 123 124 176
185 186 185 184 190 204 230 251 265 261 257 217 209 223 149 228 291 202 185 282 289 333 293 310 304 270 165 347 39 79 325 80 64 153 58 101 134 156 211 247 228 235 203 173 194 169 167
184 184 184 184 186 194 218 248 267 246 226 206 191 175 163 129 295 159 173 248 225 255 219 290 245 317 292 203 195 326 109 111 202 24 70 11 145 123 324 11 10 268 307 180 151 151 270
182 182 183 183 182 186 201 234 267 249 204 188 190 183 200 115 101 116 220 229 258 173 258 239 266 237 243 243 257 243 278 299 76 135 101 79 120 81 261 3 359 347 286 199 192 178 148
181 181 181 182 178 177 177 192 292 299 207 210 194 182 176 247 145 210 251 257 251 242 250 290 290 184 344 285 279 87 71 77 82 46 67 122 97 91 198 24 322 247 310 236 179 205 193
180 180 178 177 174 165 160 150 77 81 178 188 190 194 187 196 246 295 298 274 287 284 236 247 18 331 310 136 57 26 348 29 20 39 21 71 119 80 120 180 280 308 273 126 178 255 203
177 177 176 175 169 161 151 130 92 95 184 164 75 190 191 163 250 284 288 315 294 314 328 275 323 18 142 79 71 131 205 222 301 66 39 56 71 109 117 139 214 246 318 285 111 302 286
175 174 174 174 168 162 151 140 98 63 173 202 194 25 202 235 216 13 133 242 317 300 249 310 340 8 25 77 79 133 219 225 199 166 159 29 18 110 134 180 277 236 155 334 81 238 197
173 173 173 172 166 161 153 153 120 80 83 212 256 305 240 238 206 189 132 59 18 9 120 334 26 358 40 68 115 190 154 214 104 207 198 156 131 177 102 104 280 333 66 128 212 268 220
173 172 171 170 166 159 156 159 131 86 61 103 334 320 248 221 225 198 184 104 24 357 343 14 110 222 163 91 75 111 152 137 162 207 77 230 177 185 175 214 220 179 314 286 259 206 224
Wind_Speed_850mb
35 33 29 26 23 22 20 18 19 18 22 25 27 32 37 41 42 43 44 43 37 29 25 25 21 16 9 8 9 13 27 25 20 18 17 17 30 9 11 17 43 29 22 37 66 72 56
35 33 30 27 25 24 21 20 19 18 21 24 26 30 36 41 43 42 44 42 35 28 24 22 19 15 5 4 11 13 28 20 16 17 17 25 22 25 18 15 17 37 45 39 32 38 22
35 34 31 29 27 25 23 21 19 19 21 24 26 32 36 40 42 43 44 42 32 26 22 19 17 16 5 6 2 5 23 20 17 14 14 14 18 6 18 28 34 47 30 18 11 13 12
36 34 31 30 28 26 24 22 21 20 19 21 26 31 36 40 42 43 44 39 26 23 18 16 13 12 4 8 4 6 16 19 16 9 8 10 16 18 15 49 12 12 8 6 5 10 8
36 34 32 30 29 27 25 22 22 21 18 20 25 32 36 39 42 44 40 30 26 18 13 18 7 11 6 1 3 9 15 17 12 8 5 6 13 18 21 16 10 7 9 4 6 7 7
36 34 32 30 29 27 25 23 22 21 18 18 24 31 34 37 41 38 33 17 21 4 23 7 7 4 5 7 13 13 21 21 9 8 13 4 9 10 8 6 11 17 9 5 3 8 14
35 35 33 31 29 26 25 23 21 19 18 18 22 29 32 36 37 28 29 14 24 6 30 7 14 12 11 21 6 16 22 16 7 10 6 4 11 2 14 21 8 14 13 13 4 6 12
35 35 33 30 27 26 25 22 19 17 17 18 21 27 31 33 31 20 24 32 30 22 20 23 11 18 13 12 2 13 18 6 9 6 2 10 2 8 8 12 15 12 22 8 9 6 10
35 35 32 29 27 24 22 20 17 15 15 18 20 24 29 32 24 10 13 31 29 22 6 15 8 9 2 4 1 11 17 6 10 5 5 9 8 11 12 10 13 3 14 13 13 9 14
35 34 31 29 26 23 21 19 17 15 14 16 19 24 27 31 14 15 7 26 26 20 9 11 5 2 8 0 5 10 17 8 3 7 8 3 4 9 13 6 6 5 14 15 28 7 5
35 34 31 28 26 23 21 18 16 15 14 15 19 24 27 26 26 16 17 20 23 11 6 6 5 1 5 9 1 11 17 6 11 10 9 11 11 5 7 2 9 2 21 15 9 11 9
35 33 30 28 25 23 20 17 16 14 15 17 20 26 28 28 24 8 16 20 17 10 4 7 2 0 5 2 2 7 9 5 7 8 5 6 5 3 6 12 17 19 17 17 10 7 5
34 33 31 28 25 22 18 16 14 14 16 20 23 26 29 29 24 17 15 13 10 7 7 6 4 2 2 1 2 4 7 3 7 8 8 13 7 7 34 20 2 12 12 6 5 6 9
34 33 31 27 24 21 17 15 13 14 17 21 26 27 29 25 23 11 12 10 6 4 8 9 4 4 6 3 2 3 8 4 5 10 6 6 9 7 7 12 15 13 13 10 6 6 5
35 33 31 27 23 20 16 14 13 14 18 22 26 27 23 15 10 5 3 7 9 6 7 13 11 6 2 2 4 6 2 14 13 11 12 8 7 6 4 6 13 8 3 8 14 6 3
35 34 30 27 23 18 15 12 13 15 18 21 24 22 10 2 8 7 9 8 7 7 10 6 3 4 7 3 4 4 5 7 9 17 5 10 3 0 4 8 16 6 12 7 8 3 4
35 34 30 26 22 18 15 12 13 15 16 18 17 8 1 6 12 2 6 10 10 15 9 4 5 3 6 7 10 5 3 4 6 5 9 9 8 7 4 3 14 2 2 13 10 8 8
35 33 30 26 21 17 14 12 11 13 15 12 8 3 3 19 4 5 4 7 12 10 4 7 4 6 4 6 7 8 10 7 2 13 15 9 9 6 8 6 3 3 6 10 10 7 2
35 31 29 25 20 16 13 11 10 11 12 7 5 1 7 16 4 3 8 8 10 7 7 6 6 2 5 2 3 11 11 5 5 12 15 14 3 6 13 12 5 3 5 9 10 7 9
34 31 28 24 19 14 12 11 11 11 9 5 4 2 5 12 4 9 1 8 9 11 13 11 9 2 2 5 3 4 7 6 5 6 13 11 7 11 14 11 6 6 8 8 10 7 9
35 30 25 22 18 13 10 10 10 9 7 6 5 2 5 3 5 4 4 3 6 10 8 8 6 6 3 6 6 1 1 3 6 8 5 8 6 6 8 7 5 6 8 15 14 9 11
35 31 26 21 17 12 8 7 7 6 9 12 6 6 4 3 3 4 2 5 7 7 10 8 4 8 5 3 6 3 3 1 4 4 6 7 3 2 3 8 10 8 4 14 4 7 5
35 30 26 21 17 12 7 4 4 3 10 7 10 7 2 2 4 7 7 8 8 2 15 28 12 5 6 11 11 7 5 3 8 3 4 6 9 6 7 8 12 9 7 8 7 8 12
36 31 26 21 16 12 7 3 1 2 7 12 9 9 6 4 3 7 3 8 10 12 11 9 12 10 6 4 3 4 25 34 25 20 6 9 8 5 4 7 1 13 9 13 7 3 10
36 32 27 21 17 12 7 3 3 3 5 6 7 10 7 3 4 8 7 8 17 17 10 7 3 11 11 2 8 9 10 8 13 11 14 5 9 7 6 5 9 12 4 4 7 11 6
37 32 27 22 18 13 8 4 3 3 5 5 6 9 8 6 8 6 4 6 4 6 9 4 4 11 2 10 7 7 8 5 2 3 6 11 13 9 4 3 7 9 13 4 6 8 4
37 32 27 23 19 14 10 6 3 4 4 8 0 6 8 6 5 1 1 4 5 2 3 9 14 8 10 5 7 4 4 1 6 11 2 7 7 8 4 4 11 12 10 12 7 13 13
36 31 27 23 19 15 11 7 4 5 3 7 7 8 7 7 10 8 4 4 2 5 3 9 5 7 6 9 6 6 5 5 3 4 4 9 11 6 4 3 12 1 5 6 11 9 22
35 31 26 23 19 16 11 7 4 5 5 2 5 11 10 15 9 13 7 3 4 8 10 6 2 1 2 9 3 6 3 3 6 6 3 1 11 8 15 11 11 4 11 14 17 19 30
Wind_Direction_850mb
243 245 246 251 257 264 270 277 291 310 322 327 333 346 346 347 346 345 347 348 344 342 341 342 348 356 39 90 88 97 128 146 146 114 73 39 47 53 71 99 91 90 93 83 113 108 106
239 242 244 246 250 256 264 273 284 300 310 319 331 340 342 341 342 344 343 343 340 336 337 337 343 345 8 109 106 100 136 149 132 115 86 57 56 84 95 49 64 115 103 106 112 104 96
236 238 241 242 247 250 259 266 278 292 304 313 328 337 337 339 341 341 341 338 337 330 332 333 337 339 242 148 137 134 146 151 137 127 95 61 38 87 103 99 102 97 100 107 66 104 129
235 235 237 241 244 249 254 261 270 280 294 310 326 330 334 339 341 341 339 336 336 327 333 333 337 340 202 172 262 211 167 165 151 127 70 55 30 87 93 113 101 88 65 91 346 173 44
236 234 234 238 242 247 252 257 267 278 295 311 321 326 336 339 343 345 341 341 340 339 4 335 346 345 115 125 321 212 179 159 148 111 50 51 88 93 116 98 57 345 181 151 177 63 111
236 234 232 234 240 244 249 255 262 277 293 310 318 325 335 340 346 352 354 354 344 357 340 355 44 17 67 331 346 180 183 164 148 128 106 124 89 78 45 76 197 190 142 118 173 20 51
232 233 231 231 235 241 246 252 259 271 291 311 319 325 335 340 346 359 11 11 10 344 335 292 311 286 305 340 100 179 178 176 125 81 84 29 78 150 236 222 194 122 109 115 72 105 83
229 228 229 228 230 235 239 245 253 268 289 308 318 326 335 338 344 2 26 42 17 318 307 311 281 265 310 326 84 162 171 188 94 110 335 25 40 196 107 94 115 105 117 93 70 57 91
225 223 224 224 224 228 232 238 246 260 280 297 313 325 334 335 341 353 20 11 355 341 277 299 288 272 297 23 44 154 171 137 116 98 50 115 259 316 131 122 115 104 134 169 139 122 52
219 220 218 219 220 221 227 230 238 251 267 288 307 321 332 336 344 336 332 347 347 335 51 286 300 272 207 307 306 170 171 170 79 144 152 222 293 38 98 155 84 120 140 122 126 109 153
215 214 212 213 215 217 221 226 233 247 264 284 302 316 325 335 331 327 317 333 334 321 42 313 256 261 201 177 227 179 184 209 153 140 87 263 340 42 95 50 95 64 102 99 95 93 108
209 207 205 206 211 213 218 225 234 250 271 288 300 310 318 322 334 321 327 318 321 39 26 358 244 129 96 270 318 135 171 172 128 95 17 245 309 167 99 39 95 153 81 47 49 75 45
203 200 200 199 205 210 214 226 241 259 277 293 301 308 311 314 316 306 326 329 40 108 339 353 256 117 108 100 350 77 137 120 129 86 360 347 351 64 105 83 6 94 78 35 336 7 215
198 194 196 197 199 206 214 229 249 271 287 299 303 307 307 311 304 285 323 45 65 298 276 315 305 91 140 166 4 65 91 107 45 86 108 107 352 164 173 162 176 179 151 151 237 213 249
194 191 190 195 198 204 215 233 259 281 296 304 306 308 311 310 303 205 314 57 217 215 305 331 315 97 294 267 124 82 93 184 194 168 150 140 275 304 25 120 126 208 155 158 104 29 32
189 189 189 190 194 205 220 238 265 287 301 305 310 317 317 335 159 155 75 234 251 226 319 8 17 87 162 256 123 93 212 203 182 196 139 206 81 209 187 99 51 134 144 76 40 126 298
187 186 187 189 194 202 222 245 271 290 301 304 313 312 271 139 156 116 147 240 282 292 310 328 326 343 212 174 165 204 193 257 188 119 117 138 113 278 47 180 176 108 40 49 106 123 159
188 185 186 189 194 203 222 249 275 293 300 303 296 7 329 159 61 53 158 211 312 297 302 285 243 244 194 158 163 212 199 236 93 158 156 184 136 162 201 306 346 110 162 134 117 209 145
188 185 186 188 194 204 224 253 275 282 293 307 277 267 177 174 120 318 299 287 265 304 294 313 294 262 51 331 236 185 221 151 237 164 168 186 65 62 356 352 358 211 135 101 102 82 187
186 186 184 188 194 206 230 257 272 268 275 267 253 36 134 196 154 137 78 287 291 306 266 265 272 314 17 39 18 244 180 22 111 148 140 114 114 151 188 205 173 185 166 149 123 124 176
185 186 185 184 190 204 230 251 265 261 257 217 209 223 149 228 291 202 185 282 289 333 293 310 304 270 165 347 39 79 325 80 64 153 58 101 134 156 211 247 228 235 203 173 194 169 167
184 184 184 184 186 194 218 248 267 246 226 206 191 175 163 129 295 159 173 248 225 255 219 290 245 317 292 203 195 326 109 111 202 24 70 11 145 123 324 11 10 268 307 180 151 151 270
182 182 183 183 182 186 201 234 267 249 204 188 190 183 200 115 101 116 220 229 258 173 258 239 266 237 243 243 257 243 278 299 76 135 101 79 120 81 261 3 359 347 286 199 192 178 148
181 181 181 182 178 177 177 192 292 299 207 210 194 182 176 247 145 210 251 257 251 242 250 290 290 184 344 285 279 87 71 77 82 46 67 122 97 91 198 24 322 247 310 236 179 205 193
180 180 178 177 174 165 160 150 77 81 178 188 190 194 187 196 246 295 298 274 287 284 236 247 18 331 310 136 57 26 348 29 20 39 21 71 119 80 120 180 280 308 273 126 178 255 203
177 177 176 175 169 161 151 130 92 95 184 164 75 190 191 163 250 284 288 315 294 314 328 275 323 18 142 79 71 131 205 222 301 66 39 56 71 109 117 139 214 246 318 285 111 302 286
175 174 174 174 168 162 151 140 98 63 173 202 194 25 202 235 216 13 133 242 317 300 249 310 340 8 25 77 79 133 219 225 199 166 159 29 18 110 134 180 277 236 155 334 81 238 197
173 173 173 172 166 161 153 153 120 80 83 212 256 305 240 238 206 189 132 59 18 9 120 334 26 358 40 68 115 190 154 214 104 207 198 156 131 177 102 104 280 333 66 128 212 268 220
173 172 171 170 166 159 156 159 131 86 61 103 334 320 248 221 225 198 184 104 24 357 343 14 110 222 163 91 75 111 152 137 162 207 77 230 177 185 175 214 220 179 314 286 259 206 224